FW5469 Weather Reports


Display with metric or nautical units.
time (UTC)temp
F
wind
direction
speed
MPH
gust
MPH
rain 1hr
in
rain 24hr
in
rain mn
in
humidity
%
barometer
mb
20260902110106 76 0 0.0 3.0 0.00 0.00 0.00 88 1015.2
20260902104611 76 0 0.0 2.0 0.00 0.00 0.00 88 1015.2
20260902103103 76 0 0.0 0.0 0.00 0.00 0.00 88 1015.2
20260902101600 76 0 0.0 3.0 0.00 0.00 0.00 88 1015.1
20260902100100 76 209 0.0 1.0 0.00 0.00 0.00 88 1015.1
20260902094601 76 0 1.0 4.0 0.00 0.00 0.00 88 1015.1
20260902093105 76 204 0.0 3.0 0.00 0.00 0.00 89 1015.2
20260902091603 75 0 0.0 1.0 0.00 0.00 0.00 91 1015.3
20260902090101 74 0 0.0 0.0 0.00 0.00 0.00 92 1015.5
20260902084605 74 0 0.0 0.0 0.00 0.00 0.00 91 1015.6
20260902083108 74 0 0.0 0.0 0.00 0.00 0.00 91 1015.4
20260902081603 74 0 0.0 0.0 0.00 0.00 0.00 91 1015.4
20260902080115 74 0 0.0 0.0 0.00 0.00 0.00 91 1015.3
20260902074606 74 0 0.0 0.0 0.00 0.00 0.00 90 1015.1
20260902073104 74 0 0.0 0.0 0.00 0.00 0.00 90 1015.2
20260902071603 73 0 0.0 0.0 0.00 0.00 0.00 90 1015.3
20260902070108 74 0 0.0 0.0 0.00 0.00 0.00 89 1015.3
20260902064603 74 0 0.0 0.0 0.00 0.00 0.00 89 1015.5
20260902063106 73 0 0.0 0.0 0.00 0.00 0.00 89 1015.5
20260902061614 74 0 0.0 0.0 0.00 0.00 0.00 89 1015.6
20260902060108 74 337 0.0 1.0 0.00 0.00 0.00 89 1015.8
20260902054612 74 0 0.0 1.0 0.00 0.00 0.00 89 1015.6
20260902053105 74 0 0.0 0.0 0.00 0.00 0.00 89 1015.6
20260902051602 74 0 0.0 0.0 0.00 0.00 0.00 89 1015.5
20260902050106 74 0 0.0 0.0 0.00 0.00 0.00 89 1015.6
20260902044602 74 0 0.0 0.0 0.00 0.00 0.00 88 1015.4
20260902043107 75 0 0.0 0.0 0.00 0.00 0.00 88 1015.4
20260902041603 75 0 0.0 1.0 0.00 0.00 0.00 87 1015.1
20260902040106 76 0 0.0 0.0 0.00 0.00 0.00 86 1015.0
20260902034605 77 0 0.0 0.0 0.00 0.00 0.00 85 1015.1
20260902033115 78 0 0.0 1.0 0.00 0.00 0.00 84 1015.3
20260902031607 78 0 0.0 5.0 0.00 0.00 0.00 84 1015.3
20260902024603 77 0 0.0 3.0 0.00 0.00 0.00 86 1015.2
20260902023110 76 0 0.0 0.0 0.00 0.00 0.00 84 1015.1
20260902021609 77 0 0.0 0.0 0.00 0.00 0.00 82 1015.0
20260902020105 78 0 0.0 0.0 0.00 0.00 0.00 80 1014.6
20260902014603 78 0 0.0 1.0 0.00 0.00 0.00 78 1014.7
20260902013059 78 0 0.0 3.0 0.00 0.00 0.00 79 1014.7
20260902011601 78 0 0.0 0.0 0.00 0.00 0.00 80 1014.6
20260902010105 79 0 0.0 0.0 0.00 0.00 0.00 79 1014.5
20260902004606 80 0 0.0 0.0 0.00 0.00 0.00 77 1014.4
20260902003106 80 0 0.0 0.0 0.00 0.00 0.00 76 1014.4
20260902001605 81 0 0.0 1.0 0.00 0.00 0.00 75 1014.3
20260902000105 82 0 0.0 4.0 0.00 0.00 0.00 74 1014.0
20260901234609 83 155 0.0 5.0 0.00 0.00 0.00 74 1014.3
20260901233111 83 323 1.0 6.0 0.00 0.00 0.00 74 1014.6
20260901231606 84 0 1.0 4.0 0.00 0.00 0.00 74 1014.7
20260901230104 84 316 1.0 3.0 0.00 0.00 0.00 72 1014.9
20260901224605 85 0 0.0 4.0 0.00 0.00 0.00 71 1015.1
20260901223103 85 345 1.0 7.0 0.00 0.00 0.00 68 1015.0
20260901221620 86 355 1.0 11.0 0.00 0.00 0.00 67 1015.2
20260901220134 87 312 3.0 13.0 0.00 0.00 0.00 66 1015.0
20260901214604 87 264 2.0 9.0 0.00 0.00 0.00 67 1014.9
20260901213122 89 214 2.0 7.0 0.00 0.00 0.00 65 1014.7
20260901211602 89 270 3.0 7.0 0.00 0.00 0.00 66 1014.7
20260901210107 90 207 3.0 10.0 0.00 0.00 0.00 67 1014.7
20260901204609 90 117 2.0 9.0 0.00 0.00 0.00 67 1014.8
20260901203110 89 236 2.0 9.0 0.00 0.00 0.00 68 1014.7
20260901201603 89 240 4.0 16.0 0.00 0.00 0.00 68 1014.7
20260901200101 90 186 2.0 8.0 0.00 0.00 0.00 66 1015.1
20260901194603 90 300 2.0 6.0 0.00 0.00 0.00 66 1014.9
20260901193103 90 316 1.0 9.0 0.00 0.00 0.00 67 1014.7
20260901191616 90 0 2.0 6.0 0.00 0.00 0.00 67 1014.6
20260901190105 89 181 3.0 8.0 0.00 0.00 0.00 67 1014.5
20260901184605 89 271 3.0 10.0 0.00 0.00 0.00 68 1014.5
20260901183104 89 169 2.0 8.0 0.00 0.00 0.00 67 1014.6
20260901181602 89 181 2.0 6.0 0.00 0.00 0.00 67 1015.0
20260901180105 88 302 2.0 6.0 0.00 0.00 0.00 70 1015.1
20260901174602 87 164 1.0 4.0 0.00 0.00 0.00 72 1015.2
20260901173102 86 233 2.0 9.0 0.00 0.00 0.00 72 1015.1
20260901171611 87 174 1.0 9.0 0.00 0.00 0.00 72 1015.4
20260901164604 88 236 1.0 7.0 0.00 0.00 0.00 69 1015.6
20260901163106 88 311 2.0 6.0 0.00 0.00 0.00 70 1015.7
20260901161602 87 200 3.0 13.0 0.00 0.00 0.00 71 1015.9
20260901160116 86 305 3.0 7.0 0.00 0.00 0.00 72 1015.7
20260901154601 86 312 1.0 6.0 0.00 0.00 0.00 71 1015.7
20260901153111 84 262 2.0 6.0 0.00 0.00 0.00 74 1015.6
20260901151609 84 0 2.0 4.0 0.00 0.00 0.00 75 1015.8
20260901150107 84 295 3.0 8.0 0.00 0.00 0.00 74 1015.9
20260901144606 83 209 1.0 7.0 0.00 0.00 0.00 76 1015.7
20260901143106 83 335 2.0 11.0 0.00 0.00 0.00 76 1016.0
20260901141605 83 155 2.0 11.0 0.00 0.00 0.00 76 1015.7
20260901140104 82 307 4.0 11.0 0.00 0.00 0.00 77 1015.5
20260901134616 81 179 1.0 6.0 0.00 0.00 0.00 78 1015.2
20260901133107 81 314 0.0 5.0 0.00 0.00 0.00 79 1015.3
20260901131606 80 165 0.0 7.0 0.00 0.00 0.00 79 1015.4
20260901124606 80 316 0.0 4.0 0.00 0.00 0.00 80 1015.6
20260901123108 78 0 0.0 4.0 0.00 0.00 0.00 81 1015.6
20260901121606 78 0 0.0 2.0 0.00 0.00 0.00 82 1015.5
20260901120104 78 164 1.0 2.0 0.00 0.00 0.00 82 1015.5
20260901114603 77 0 1.0 3.0 0.00 0.00 0.00 82 1015.6
20260901113117 77 177 0.0 4.0 0.00 0.00 0.00 83 1015.5
20260901111606 77 169 0.0 3.0 0.00 0.00 0.00 83 1015.3